Погода в Янске-Лазне

Чехия     50°37′47″N   15°47′12″E
темп.,
°C
ветер,
м/с
пор.,
м/с
влажн.,
%
обл.,
%
осадки,
мм/ч
давл.,
гПа
погр.,
м
24 мая, вт
вт2423:00+11ю3776100 0.0 1007210
02:00+10ю4108296 0.2 1006428
05:00+9ююз359686 0.1 1006136
08:00+11ююз3695100 0.1 1006246
11:00+14юз248997 0.0 1007459
14:00+17зюз3574100 0.6 1008894
17:00+15зсз2386100 2.0 1009382
20:00+13ююз0193100 2.5 101013
25 мая, ср
ср2523:00+11зюз1195100 0.3 101225
02:00+10з1297100 3.6 101356
05:00+10зсз1198100 5.7 101330
08:00+11зюз1193100 6.4 1014115
11:00+13юз1277100 0.2 1015674
14:00+14зюз3661100 0.5 10151314
17:00+15з476290 0.4 10161440
20:00+12зсз22705 0.4 101730
26 мая, чт
чт2623:00+10зюз1270100 0.0 101925
02:00+9юз2272100 0.0 101934
05:00+8юз238287 0.0 101954
08:00+12зюз37615 0.0 1019830
11:00+15зюз6105397 0.0 10191832
14:00+16з61055100 0.2 10191955
17:00+15зсз4106520 0.2 10191485
20:00+13з377938 0.3 1020568
27 мая, пт
пт2723:00+9зюз23965 0.0 102143
02:00+9юз239660 0.0 102055
05:00+8юз3496100 0.0 101887
08:00+13зюз4137725 0.0 10161099
11:00+15зюз61369100 0.4 10151554
14:00+9зсз41194100 2.1 1016845
17:00+11зсз5137474 0.1 10151206
20:00+9зсз516753 0.3 10171687
28 мая, сб
сб2823:00+7зсз512635 0.0 10171164
02:00+5зсз5127712 0.0 10171052
05:00+4з4118485 0.0 1017840
08:00+6з5106883 0.0 10161080
11:00+9зсз6115999 0.1 10161595
14:00+10зсз7115768 0.4 10151830
17:00+10зсз596554 0.4 10161444
20:00+8зсз48655 0.6 10161006